This is the latest recevied weather packets stored in our database for station/object KG5APU. If no packets are shown the sender has not sent any weather packets the latest 10 day(s).
| Time | Temp. | Humidity | Pressure | Rain* | Wind** | Luminosity | Snow |
|---|---|---|---|---|---|---|---|
| 1777850558 | 26.67° C | 41% | 1016.4 hPa | 0 mm | - | 180 W/m² | - |
| 1777849952 | 27.22° C | 41% | 1016.3 hPa | 0 mm | - | 209 W/m² | - |
| 1777849352 | 26.67° C | 35% | 1016.7 hPa | 0 mm | - | 240 W/m² | - |
| 1777848749 | 27.22° C | 35% | 1016.5 hPa | 0 mm | - | 270 W/m² | - |
| 1777848144 | 27.78° C | 36% | 1016.6 hPa | 0 mm | - | 302 W/m² | - |
| 1777847545 | 27.22° C | 35% | 1016.9 hPa | 0 mm | - | 344 W/m² | - |
| 1777846945 | 27.22° C | 38% | 1016.8 hPa | 0 mm | - | 369 W/m² | - |
| 1777846340 | 27.78° C | 36% | 1016.9 hPa | 0 mm | - | 412 W/m² | - |
| 1777845739 | 27.22° C | 37% | 1016.9 hPa | 0 mm | - | 438 W/m² | - |
| 1777845138 | 27.22° C | 35% | 1016.8 hPa | 0 mm | - | 471 W/m² | - |
| 1777844538 | 27.22° C | 35% | 1017.2 hPa | 0 mm | - | 500 W/m² | - |
| 1777843933 | 28.33° C | 33% | 1017.2 hPa | 0 mm | - | 531 W/m² | - |
| 1777843328 | 27.78° C | 35% | 1017.5 hPa | 0 mm | - | 566 W/m² | - |
| 1777842727 | 27.78° C | 35% | 1017.8 hPa | 0 mm | - | 597 W/m² | - |
| 1777842127 | 27.78° C | 34% | 1017.8 hPa | 0 mm | - | 626 W/m² | - |
| 1777841524 | 27.78° C | 34% | 1017.7 hPa | 0 mm | - | 658 W/m² | - |
| 1777840924 | 27.22° C | 33% | 1018 hPa | 0 mm | - | 681 W/m² | - |
| 1777840319 | 27.78° C | 35% | 1018.8 hPa | 0 mm | - | 704 W/m² | - |
| 1777839719 | 27.78° C | 36% | 1018.8 hPa | 0 mm | - | 734 W/m² | - |
| 1777839115 | 27.22° C | 36% | 1018.9 hPa | 0 mm | - | 742 W/m² | - |
| 1777838513 | 27.22° C | 35% | 1019 hPa | 0 mm | - | 783 W/m² | - |
| 1777837913 | 26.67° C | 38% | 1019.1 hPa | 0 mm | - | 812 W/m² | - |
| 1777837311 | 27.22° C | 36% | 1019.2 hPa | 0 mm | - | 818 W/m² | - |
| 1777836709 | 26.67° C | 38% | 1019.5 hPa | 0 mm | - | 826 W/m² | - |
| 1777836106 | 26.67° C | 37% | 1019.6 hPa | 0 mm | - | 834 W/m² | - |
* Rain latest hour (hover to see other rain measurements)
** Current wind speed in m/s (hover to see current wind gust speed)